• In Netherlands
  • List of Countries
  • For 7 days
  • Water Temperature
  • Satellite Maps
  • Weather Map
  • Weather Widgets
  • user-avatar
    Login

    Hourly Weather Mahilyow

    Today, 20 September, Wednesday

    Time Temperature Precipitation Wind Pressure Humidity
    00:00 +11°C° 0 mm 0 mps 751 mmHg 80%
    01:00 +12°C° 0 mm 1 mps 751 mmHg 81%
    02:00 +12°C° 0 mm 1 mps 751 mmHg 80%
    03:00 +11°C° 0 mm 1 mps 751 mmHg 81%
    04:00 +11°C° 0 mm 1 mps 751 mmHg 82%
    05:00 +11°C° 0 mm 1 mps 750 mmHg 83%
    06:00 +12°C° 0 mm 2 mps 751 mmHg 82%
    07:00 +12°C° 0 mm 2 mps 751 mmHg 80%
    08:00 +13°C° 0 mm 2 mps 751 mmHg 78%
    09:00 +13°C° 0 mm 2 mps 751 mmHg 76%
    10:00 +13°C° 0 mm 3 mps 751 mmHg 75%
    11:00 +14°C° 0 mm 3 mps 751 mmHg 73%
    12:00 +14°C° 0 mm 3 mps 751 mmHg 71%
    13:00 +15°C° 0 mm 4 mps 751 mmHg 68%
    14:00 +17°C° 0 mm 4 mps 751 mmHg 66%
    15:00 +15°C° 0 mm 4 mps 750 mmHg 67%
    16:00 +15°C° 0 mm 4 mps 750 mmHg 69%
    17:00 +14°C° 0 mm 4 mps 750 mmHg 70%
    18:00 +14°C° 0 mm 4 mps 750 mmHg 71%
    19:00 +13°C° 0 mm 4 mps 750 mmHg 72%
    20:00 +13°C° 0 mm 4 mps 750 mmHg 73%
    21:00 +13°C° 0 mm 4 mps 750 mmHg 73%
    22:00 +13°C° 0 mm 4 mps 750 mmHg 72%
    23:00 +13°C° 0 mm 4 mps 750 mmHg 72%

    Tomorrow, 21 September, Thursday

    Time Temperature Precipitation Wind Pressure Humidity
    00:00 +13°C° 0.1 mm 4 mps 749 mmHg 74%
    01:00 +13°C° 0.1 mm 4 mps 749 mmHg 76%
    02:00 +12°C° 0.1 mm 5 mps 749 mmHg 77%
    03:00 +12°C° 0.2 mm 5 mps 749 mmHg 80%
    04:00 +12°C° 0.2 mm 5 mps 749 mmHg 83%
    05:00 +10°C° 0.2 mm 5 mps 748 mmHg 86%
    06:00 +10°C° 0.3 mm 5 mps 748 mmHg 86%
    07:00 +11°C° 0.3 mm 6 mps 748 mmHg 85%
    08:00 +11°C° 0.3 mm 7 mps 747 mmHg 85%
    09:00 +12°C° 0.1 mm 7 mps 747 mmHg 81%
    10:00 +15°C° 0.1 mm 7 mps 747 mmHg 77%
    11:00 +16°C° 0.1 mm 6 mps 747 mmHg 73%
    12:00 +17°C° 0.2 mm 6 mps 747 mmHg 72%
    13:00 +18°C° 0.2 mm 7 mps 747 mmHg 71%
    14:00 +20°C° 0.2 mm 7 mps 746 mmHg 70%
    15:00 +19°C° 0.2 mm 6 mps 746 mmHg 74%
    16:00 +19°C° 0.2 mm 5 mps 746 mmHg 78%
    17:00 +18°C° 0.2 mm 4 mps 746 mmHg 82%
    18:00 +17°C° 0.6 mm 5 mps 746 mmHg 81%
    19:00 +17°C° 0.6 mm 6 mps 747 mmHg 81%
    20:00 +17°C° 0.6 mm 7 mps 747 mmHg 81%
    21:00 +16°C° 0.3 mm 6 mps 747 mmHg 81%
    22:00 +16°C° 0.3 mm 6 mps 747 mmHg 81%
    23:00 +15°C° 0.3 mm 6 mps 747 mmHg 82%

    Day after tomorrow, 22 September, Friday

    Time Temperature Precipitation Wind Pressure Humidity
    00:00 +15°C° 0.1 mm 6 mps 748 mmHg 82%
    01:00 +15°C° 0.1 mm 6 mps 748 mmHg 82%
    02:00 +14°C° 0.1 mm 6 mps 748 mmHg 82%
    03:00 +14°C° 0 mm 6 mps 748 mmHg 81%
    04:00 +14°C° 0 mm 6 mps 747 mmHg 81%
    05:00 +14°C° 0 mm 7 mps 747 mmHg 81%
    06:00 +14°C° 0 mm 7 mps 748 mmHg 79%
    07:00 +15°C° 0 mm 7 mps 748 mmHg 78%
    08:00 +15°C° 0 mm 6 mps 749 mmHg 77%
    09:00 +17°C° 0 mm 6 mps 749 mmHg 72%
    10:00 +19°C° 0 mm 6 mps 749 mmHg 68%
    11:00 +21°C° 0 mm 6 mps 750 mmHg 64%
    12:00 +21°C° 0 mm 6 mps 750 mmHg 62%
    13:00 +22°C° 0 mm 6 mps 750 mmHg 60%
    14:00 +23°C° 0 mm 6 mps 750 mmHg 58%
    15:00 +22°C° 0 mm 5 mps 750 mmHg 61%
    16:00 +21°C° 0 mm 5 mps 750 mmHg 64%
    17:00 +21°C° 0 mm 5 mps 750 mmHg 67%
    18:00 +20°C° 0 mm 5 mps 751 mmHg 67%
    19:00 +19°C° 0 mm 6 mps 751 mmHg 68%
    20:00 +17°C° 0 mm 6 mps 752 mmHg 69%
    21:00 +16°C° 0 mm 6 mps 752 mmHg 68%
    22:00 +15°C° 0 mm 6 mps 752 mmHg 67%
    23:00 +15°C° 0 mm 6 mps 752 mmHg 67%

    23 September, Saturday

    Time Temperature Precipitation Wind Pressure Humidity
    00:00 +14°C° 0 mm 6 mps 753 mmHg 67%
    01:00 +13°C° 0 mm 6 mps 753 mmHg 68%
    02:00 +13°C° 0 mm 5 mps 753 mmHg 69%
    03:00 +12°C° 0 mm 5 mps 753 mmHg 68%
    04:00 +10°C° 0 mm 5 mps 753 mmHg 68%
    05:00 +10°C° 0 mm 5 mps 753 mmHg 67%
    06:00 +10°C° 0 mm 5 mps 753 mmHg 66%
    07:00 +11°C° 0 mm 6 mps 754 mmHg 65%
    08:00 +11°C° 0 mm 6 mps 754 mmHg 64%
    09:00 +13°C° 0 mm 6 mps 754 mmHg 61%
    10:00 +14°C° 0 mm 6 mps 754 mmHg 58%
    11:00 +16°C° 0 mm 6 mps 754 mmHg 56%
    12:00 +17°C° 0 mm 6 mps 754 mmHg 55%
    13:00 +17°C° 0 mm 6 mps 754 mmHg 55%
    14:00 +19°C° 0 mm 6 mps 754 mmHg 55%
    15:00 +17°C° 0 mm 5 mps 754 mmHg 58%
    16:00 +18°C° 0 mm 4 mps 754 mmHg 62%
    17:00 +17°C° 0 mm 4 mps 754 mmHg 65%
    18:00 +15°C° 0 mm 4 mps 755 mmHg 68%
    19:00 +14°C° 0 mm 4 mps 755 mmHg 70%
    20:00 +13°C° 0 mm 4 mps 755 mmHg 73%
    21:00 +13°C° 0 mm 4 mps 755 mmHg 74%
    22:00 +12°C° 0 mm 4 mps 755 mmHg 76%
    23:00 +12°C° 0 mm 3 mps 755 mmHg 77%

    24 September, Sunday

    Time Temperature Precipitation Wind Pressure Humidity
    00:00 +11°C° 0 mm 4 mps 755 mmHg 79%
    01:00 +11°C° 0 mm 4 mps 756 mmHg 81%
    02:00 +10°C° 0 mm 4 mps 756 mmHg 83%
    03:00 +10°C° 0 mm 4 mps 756 mmHg 83%
    04:00 +10°C° 0 mm 4 mps 756 mmHg 83%
    05:00 +10°C° 0 mm 4 mps 756 mmHg 82%
    06:00 +9°C° 0 mm 5 mps 756 mmHg 79%
    07:00 +10°C° 0 mm 5 mps 756 mmHg 75%
    08:00 +12°C° 0 mm 5 mps 756 mmHg 72%
    09:00 +13°C° 0 mm 6 mps 757 mmHg 65%
    10:00 +15°C° 0 mm 6 mps 757 mmHg 58%
    11:00 +17°C° 0 mm 6 mps 757 mmHg 51%
    12:00 +17°C° 0 mm 6 mps 757 mmHg 49%
    13:00 +19°C° 0 mm 6 mps 757 mmHg 48%
    14:00 +19°C° 0 mm 6 mps 757 mmHg 46%
    15:00 +17°C° 0 mm 5 mps 757 mmHg 50%
    16:00 +17°C° 0 mm 4 mps 757 mmHg 54%
    17:00 +17°C° 0 mm 3 mps 757 mmHg 58%
    18:00 +15°C° 0 mm 4 mps 758 mmHg 60%
    19:00 +14°C° 0 mm 4 mps 758 mmHg 62%
    20:00 +13°C° 0 mm 4 mps 758 mmHg 64%
    21:00 +12°C° 0 mm 4 mps 758 mmHg 66%
    22:00 +12°C° 0 mm 4 mps 758 mmHg 67%
    23:00 +11°C° 0 mm 4 mps 758 mmHg 69%

    25 September, Monday

    Time Temperature Precipitation Wind Pressure Humidity
    00:00 +11°C° 0 mm 4 mps 758 mmHg 71%
    01:00 +11°C° 0 mm 4 mps 759 mmHg 73%
    02:00 +10°C° 0 mm 4 mps 759 mmHg 75%
    03:00 +10°C° 0 mm 4 mps 759 mmHg 76%
    04:00 +8°C° 0 mm 4 mps 759 mmHg 78%
    05:00 +8°C° 0 mm 4 mps 759 mmHg 79%
    06:00 +10°C° 0 mm 4 mps 759 mmHg 77%
    07:00 +9°C° 0 mm 5 mps 759 mmHg 74%
    08:00 +10°C° 0 mm 5 mps 759 mmHg 72%
    09:00 +13°C° 0 mm 5 mps 759 mmHg 67%
    10:00 +14°C° 0 mm 5 mps 759 mmHg 62%
    11:00 +16°C° 0 mm 5 mps 759 mmHg 56%
    12:00 +17°C° 0 mm 5 mps 759 mmHg 55%
    13:00 +17°C° 0 mm 5 mps 759 mmHg 54%
    14:00 +19°C° 0 mm 5 mps 759 mmHg 52%
    15:00 +17°C° 0 mm 5 mps 759 mmHg 56%
    16:00 +18°C° 0 mm 4 mps 759 mmHg 60%
    17:00 +17°C° 0 mm 4 mps 759 mmHg 63%
    18:00 +15°C° 0 mm 4 mps 759 mmHg 66%
    19:00 +14°C° 0 mm 4 mps 759 mmHg 69%
    20:00 +13°C° 0 mm 4 mps 760 mmHg 72%
    21:00 +12°C° 0 mm 4 mps 760 mmHg 73%
    22:00 +12°C° 0 mm 4 mps 760 mmHg 74%
    23:00 +11°C° 0 mm 4 mps 760 mmHg 76%
    Show more